TITAN 3C TRANSTAGE DEB, 1722

Orbit data source: Space-Track

TITAN 3C TRANSTAGE DEB, 1722 is space debris in LEO originally from a launch on Fri, 15 Oct 1965 UTC launched from the Air Force Eastern Test Range (AFETR). Debris objects in space refer to the collection of defunct objects orbiting the Earth. Examples of debris include non-operational satellites, rocket bodies, and fragments generated from explosions, collisions, or faulty payload assembly.

Loading next visibility...
TITAN 3C TRANSTAGE DEB details
Identifier
1722, 1965-082CD
Orbit
LEO
Last TLE update16 hours ago
Origin
Flag of USUSAF SSD (US)
ManufacturerUnknown
MissionSpacecraft
Bus & MotorUnknown
MassUnknown
Launch date (UTC)
1965-10-15 (59 years ago)
Launch vehicleUnknown
Launch site
Air Force Eastern Test Range (AFETR)
Object type
Payload
Rocket body
Debris
Shape & HBRUnknown
Radar Cross SectionSmall (<0.1 m²)

Expand to show TLE details & history

TLE from 16 hours ago
0 TITAN 3C TRANSTAGE DEB
1 01722U 65082CD  25044.12607313  .00001555  00000-0  29060-3 0  9997
2 01722  32.4193 323.7990 0027096  85.1716 275.2027 14.63045984127303
Epoch: 2025-02-13T03:01Z
Definitive object data (Epoch: 2025-02-13T03:01:32.718Z)
Latitude-0.00004°
Longitude135.00594°
Altitude680.35 km
Speed7.52 km/s
True Right ascension21h 35m 11s
True Declination0° 00' 00"
Sunlit
Object was in daylight at TLE epoch
Visualization TLE readout
Latitude-30.67963°
Longitude19.40278°
Altitude708.561 km
Speed7.493 km/s
Apparent Right ascension11h 57m 34s
Apparent Declination-39° 36' 50"
Sunlit
Object is in daylight
Visualization observer readout
Local Sidereal Time21:30:06
Azimuth258.556° W
Elevation-61.867°
Doppler factor1
Orbital elements
Apogee altitude706.053 km
Perigee altitude667.766 km
Semi-major axis7,065.047 km
Eccentricity0.0027096
Inclination32.4193°
RAAN323.799°
Arg. of periapsis85.1716°
True anomaly274.89339°
Mean anomaly275.2027°
Eccentric anomaly275.04805°
Mean motion3.65486 °/min
BSTAR0.0002906
Orbital period98.5 mins
Loading maneuver chart data...

TITAN 3C TRANSTAGE DEB Visibility forecast

Observer location: undefined°, undefined

Span
Click to sort rows by Start time (UTC) header in descending order
Start Az.
Max El. time (UTC)
Max El. Az.
Max El.
End time (UTC)
End Az.
6 mins2025-02-13 22:57:21.128Z209.626° SW2025-02-13 23:00:21.128Z158.149° S23.131°2025-02-13 23:03:21.128Z115.146° SE
6 mins2025-02-14 00:41:21.128Z228.723° WSW2025-02-14 00:43:21.128Z190.319° SSW28.598°2025-02-14 00:47:21.128Z121.255° SE
5 mins2025-02-14 02:25:21.128Z230.955° WSW2025-02-14 02:27:21.128Z197.046° SSW21.92°2025-02-14 02:30:21.128Z150.588° SSE
|